Total_Precipitation_Accumulation
0.00 0.00 0.00 0.00 0.03 0.11 0.49 0.68 0.89 0.51 0.07 0.06 0.01 0.00 0.00 0.02 0.09 0.17 0.00 0.00 0.00 0.00 0.00 0.03 0.12 0.12 0.14 0.05 0.05 0.03 0.03 0.04 0.12 0.04 0.03 0.04 0.04 0.06 0.11 0.04 0.07 0.06 0.07 0.06 0.06 0.07 0.17 0.10 0.09
0.00 0.00 0.00 0.03 0.07 0.33 0.74 1.14 1.36 0.74 0.21 0.16 0.01 0.01 0.06 0.02 0.07 0.01 0.00 0.00 0.00 0.00 0.00 0.00 0.07 0.12 0.15 0.05 0.02 0.03 0.08 0.07 0.12 0.07 0.11 0.08 0.11 0.12 0.12 0.08 0.09 0.10 0.13 0.16 0.06 0.09 0.12 0.08 0.15
0.00 0.00 0.06 0.17 0.11 0.38 0.68 1.53 2.18 0.84 0.21 0.12 0.05 0.14 0.11 0.14 0.06 0.00 0.00 0.00 0.00 0.00 0.00 0.00 0.04 0.06 0.06 0.07 0.02 0.04 0.09 0.10 0.09 0.09 0.05 0.07 0.06 0.05 0.09 0.08 0.06 0.04 0.07 0.11 0.07 0.10 0.09 0.16 0.21
0.00 0.13 0.23 0.28 0.51 0.66 0.88 1.04 0.82 1.38 0.61 0.34 0.20 0.17 0.17 0.18 0.01 0.00 0.00 0.00 0.00 0.00 0.00 0.00 0.02 0.02 0.03 0.04 0.04 0.07 0.05 0.06 0.09 0.10 0.05 0.05 0.07 0.06 0.07 0.09 0.08 0.05 0.07 0.08 0.05 0.07 0.15 0.23 0.30
0.03 0.35 0.65 0.77 1.10 0.85 0.89 0.79 1.75 2.50 1.19 0.87 0.17 0.05 0.07 0.05 0.00 0.00 0.00 0.00 0.00 0.01 0.00 0.01 0.10 0.06 0.04 0.08 0.19 0.18 0.06 0.05 0.12 0.05 0.06 0.06 0.07 0.07 0.16 0.09 0.19 0.13 0.06 0.03 0.02 0.06 0.22 0.26 0.34
0.11 0.34 0.69 0.99 0.71 0.58 1.15 1.39 1.56 0.97 0.23 0.16 0.20 0.06 0.03 0.01 0.00 0.00 0.00 0.00 0.01 0.00 0.00 0.00 0.06 0.06 0.04 0.06 0.17 0.12 0.04 0.04 0.05 0.02 0.07 0.03 0.03 0.13 0.17 0.15 0.08 0.02 0.01 0.01 0.03 0.15 0.40 0.54 0.31
0.18 0.65 0.40 0.74 0.56 0.85 0.95 0.96 0.71 0.31 0.19 0.15 0.09 0.02 0.03 0.01 0.00 0.00 0.00 0.00 0.01 0.00 0.00 0.00 0.01 0.05 0.03 0.12 0.19 0.14 0.09 0.01 0.02 0.02 0.02 0.00 0.03 0.13 0.22 0.09 0.04 0.03 0.03 0.11 0.14 0.24 0.33 0.34 0.11
0.04 0.24 0.16 0.35 0.33 0.78 0.73 0.57 0.64 0.44 0.33 0.10 0.06 0.05 0.01 0.00 0.00 0.00 0.00 0.01 0.03 0.02 0.00 0.00 0.00 0.03 0.05 0.12 0.13 0.07 0.02 0.04 0.02 0.02 0.09 0.21 0.07 0.10 0.08 0.07 0.09 0.11 0.11 0.12 0.14 0.18 0.20 0.33 0.21
0.04 0.28 0.09 0.13 0.10 0.56 0.52 0.71 0.59 0.25 0.10 0.10 0.10 0.07 0.00 0.00 0.00 0.00 0.00 0.01 0.03 0.03 0.01 0.00 0.01 0.03 0.19 0.15 0.12 0.03 0.08 0.04 0.01 0.07 0.20 0.38 0.05 0.01 0.08 0.07 0.05 0.09 0.10 0.01 0.04 0.13 0.23 0.22 0.12
0.27 0.37 0.06 0.05 0.03 0.33 1.36 0.69 0.47 0.11 0.23 0.16 0.15 0.05 0.01 0.00 0.00 0.00 0.00 0.00 0.00 0.01 0.01 0.00 0.01 0.00 0.01 0.03 0.07 0.00 0.01 0.03 0.04 0.06 0.23 0.16 0.03 0.02 0.02 0.03 0.01 0.03 0.04 0.07 0.06 0.07 0.10 0.11 0.06
0.26 0.17 0.03 0.02 0.03 0.19 0.94 0.69 0.22 0.15 0.12 0.14 0.09 0.05 0.00 0.00 0.00 0.00 0.00 0.00 0.00 0.00 0.00 0.00 0.01 0.01 0.02 0.04 0.00 0.02 0.01 0.03 0.02 0.01 0.04 0.03 0.02 0.00 0.03 0.04 0.01 0.04 0.09 0.16 0.12 0.04 0.04 0.07 0.04
0.09 0.03 0.02 0.02 0.02 0.12 0.45 1.44 0.25 0.34 0.62 0.26 0.18 0.02 0.00 0.00 0.00 0.00 0.00 0.00 0.00 0.00 0.00 0.00 0.00 0.01 0.02 0.02 0.00 0.02 0.01 0.02 0.01 0.01 0.02 0.03 0.02 0.01 0.06 0.04 0.07 0.09 0.13 0.50 0.15 0.03 0.02 0.10 0.05
0.10 0.03 0.00 0.00 0.01 0.12 0.26 0.18 0.17 0.68 0.31 0.29 0.25 0.04 0.01 0.01 0.00 0.01 0.01 0.00 0.00 0.00 0.00 0.00 0.00 0.01 0.01 0.02 0.05 0.03 0.03 0.05 0.00 0.00 0.01 0.02 0.02 0.01 0.03 0.10 0.06 0.11 0.09 0.10 0.04 0.03 0.02 0.01 0.00
0.01 0.04 0.00 0.00 0.01 0.05 0.10 0.17 0.21 0.33 0.16 0.39 0.28 0.03 0.00 0.00 0.00 0.00 0.01 0.00 0.00 0.00 0.00 0.00 0.00 0.00 0.01 0.01 0.02 0.02 0.02 0.01 0.00 0.00 0.06 0.14 0.06 0.15 0.15 0.11 0.06 0.02 0.04 0.02 0.02 0.03 0.04 0.01 0.00
0.00 0.01 0.00 0.00 0.01 0.02 0.16 0.58 0.32 0.27 0.31 0.34 0.16 0.02 0.00 0.00 0.00 0.00 0.00 0.00 0.00 0.00 0.00 0.00 0.00 0.00 0.01 0.02 0.03 0.01 0.00 0.02 0.00 0.02 0.09 0.17 0.21 0.26 0.22 0.10 0.06 0.02 0.01 0.00 0.03 0.01 0.00 0.00 0.01
0.00 0.00 0.00 0.00 0.01 0.01 0.16 0.85 0.35 0.37 1.09 0.23 0.11 0.01 0.00 0.00 0.00 0.00 0.00 0.00 0.00 0.00 0.00 0.00 0.00 0.00 0.00 0.01 0.01 0.00 0.00 0.01 0.00 0.01 0.01 0.18 0.29 0.26 0.28 0.12 0.13 0.02 0.00 0.00 0.02 0.01 0.01 0.00 0.00
0.00 0.00 0.00 0.01 0.01 0.04 0.18 0.51 0.24 0.17 0.35 0.15 0.11 0.03 0.00 0.00 0.00 0.00 0.00 0.00 0.00 0.00 0.00 0.00 0.00 0.00 0.00 0.00 0.01 0.00 0.01 0.02 0.02 0.04 0.11 0.16 0.15 0.19 0.30 0.20 0.10 0.02 0.01 0.01 0.02 0.00 0.00 0.00 0.00
0.00 0.00 0.00 0.01 0.01 0.02 0.03 0.67 0.66 0.16 0.57 0.24 0.10 0.05 0.01 0.00 0.00 0.00 0.00 0.00 0.00 0.00 0.00 0.00 0.00 0.00 0.00 0.00 0.02 0.00 0.01 0.05 0.05 0.04 0.18 0.17 0.17 0.27 0.25 0.13 0.07 0.04 0.01 0.00 0.00 0.00 0.01 0.02 0.00
0.00 0.00 0.00 0.00 0.00 0.00 0.01 0.14 0.24 0.04 0.19 0.39 0.11 0.06 0.03 0.01 0.01 0.00 0.00 0.00 0.00 0.00 0.00 0.00 0.00 0.00 0.00 0.00 0.00 0.00 0.00 0.00 0.01 0.08 0.09 0.15 0.15 0.13 0.13 0.12 0.04 0.09 0.06 0.00 0.00 0.00 0.00 0.00 0.00
0.00 0.00 0.00 0.01 0.01 0.00 0.03 0.05 0.19 0.13 0.13 0.31 0.49 0.08 0.05 0.02 0.01 0.00 0.00 0.00 0.01 0.00 0.00 0.00 0.00 0.00 0.00 0.00 0.00 0.00 0.00 0.02 0.06 0.11 0.12 0.05 0.12 0.20 0.06 0.06 0.02 0.04 0.03 0.00 0.00 0.00 0.00 0.00 0.00
0.00 0.00 0.00 0.00 0.02 0.00 0.01 0.11 0.19 0.33 0.10 0.20 0.75 0.27 0.13 0.03 0.03 0.00 0.00 0.00 0.02 0.01 0.00 0.00 0.00 0.00 0.00 0.00 0.00 0.01 0.06 0.12 0.26 0.24 0.07 0.02 0.14 0.09 0.03 0.02 0.01 0.00 0.01 0.00 0.00 0.00 0.02 0.01 0.00
0.00 0.00 0.00 0.00 0.00 0.00 0.00 0.03 0.11 0.15 0.04 0.51 0.95 0.37 0.09 0.03 0.02 0.01 0.00 0.01 0.01 0.01 0.00 0.00 0.00 0.00 0.00 0.00 0.00 0.01 0.02 0.02 0.03 0.02 0.02 0.03 0.05 0.06 0.06 0.00 0.00 0.01 0.04 0.03 0.00 0.00 0.00 0.00 0.00
0.00 0.00 0.00 0.00 0.00 0.00 0.00 0.00 0.03 0.10 0.14 0.25 0.81 0.26 0.08 0.01 0.00 0.01 0.01 0.00 0.01 0.00 0.00 0.00 0.00 0.00 0.00 0.00 0.03 0.01 0.01 0.16 0.13 0.04 0.24 0.16 0.08 0.07 0.08 0.05 0.07 0.04 0.05 0.04 0.01 0.00 0.00 0.00 0.00
0.00 0.00 0.00 0.00 0.00 0.00 0.00 0.00 0.01 0.24 0.35 0.19 0.06 0.13 0.22 0.06 0.03 0.03 0.00 0.01 0.00 0.00 0.00 0.00 0.00 0.00 0.00 0.00 0.01 0.02 0.04 0.20 0.23 0.16 0.19 0.10 0.04 0.10 0.05 0.05 0.15 0.15 0.14 0.07 0.02 0.00 0.02 0.01 0.00
0.00 0.00 0.00 0.00 0.00 0.00 0.00 0.00 0.00 0.06 0.44 0.36 0.02 0.05 0.12 0.10 0.08 0.03 0.01 0.01 0.00 0.00 0.00 0.00 0.00 0.00 0.00 0.00 0.00 0.00 0.02 0.07 0.23 0.33 0.04 0.02 0.03 0.01 0.05 0.12 0.22 0.13 0.10 0.10 0.06 0.04 0.01 0.01 0.00
0.00 0.00 0.00 0.00 0.00 0.00 0.00 0.00 0.00 0.00 0.02 0.06 0.01 0.02 0.05 0.08 0.11 0.16 0.01 0.02 0.00 0.00 0.00 0.00 0.00 0.00 0.00 0.00 0.01 0.02 0.02 0.02 0.02 0.13 0.01 0.04 0.07 0.04 0.13 0.15 0.13 0.08 0.02 0.02 0.07 0.04 0.02 0.01 0.00
0.00 0.00 0.00 0.00 0.00 0.00 0.00 0.00 0.00 0.00 0.00 0.00 0.01 0.01 0.08 0.27 0.29 0.18 0.04 0.02 0.06 0.00 0.00 0.00 0.00 0.00 0.00 0.00 0.00 0.00 0.00 0.00 0.01 0.01 0.00 0.00 0.03 0.11 0.19 0.13 0.09 0.07 0.07 0.05 0.07 0.05 0.06 0.05 0.00
0.00 0.00 0.00 0.00 0.00 0.00 0.00 0.00 0.00 0.00 0.00 0.00 0.00 0.00 0.02 0.29 0.86 0.92 0.37 0.16 0.12 0.04 0.01 0.00 0.00 0.00 0.00 0.00 0.00 0.00 0.00 0.01 0.00 0.01 0.00 0.00 0.02 0.14 0.35 0.37 0.13 0.11 0.08 0.10 0.05 0.03 0.02 0.02 0.01
0.00 0.00 0.00 0.00 0.00 0.00 0.00 0.01 0.00 0.00 0.00 0.00 0.00 0.00 0.01 0.13 0.67 1.53 1.45 0.68 0.36 0.19 0.12 0.09 0.02 0.00 0.00 0.00 0.00 0.00 0.00 0.00 0.00 0.00 0.00 0.00 0.00 0.04 0.24 0.74 0.14 0.14 0.06 0.03 0.06 0.09 0.05 0.03 0.01
0.00 0.00 0.00 0.00 0.00 0.00 0.00 0.03 0.00 0.00 0.00 0.00 0.02 0.02 0.02 0.12 0.32 0.73 1.30 1.25 0.94 0.50 0.30 0.27 0.14 0.04 0.01 0.00 0.01 0.00 0.00 0.00 0.00 0.00 0.00 0.00 0.00 0.01 0.06 0.10 0.12 0.12 0.04 0.07 0.10 0.09 0.04 0.06 0.01